Torna al catalogo

COSMOS 712

AttivoNavigazioneLEO
NORAD 7679·PAYLOAD·🇷🇺 Russia

Lanciato Feb 28, 1975 da Plesetsk Cosmodrome

Loading…

Prossimi Passaggi (prossime 24 ore)

TLE

AggiornatoSource: Space-Track

Epoca: Sep 14, 2026, 06:00 UTC

1 07679U 75016B   26257.25024845 -.00000012  00000-0  25504-4 0  9994
2 07679  74.0076   2.9808 0049735 140.1112 245.5770 12.53466324358417

Traccia COSMOS 712 in tempo reale con AllMySat

Download on the App Store